Wind_Speed
21 21 19 19 21 21 21 22 22 20 20 21 21 22 22 21 20 20 19 20 20 20 20 19 18 18 17 18 18 17 16 14 13 13 13 13 13 13 13 13 12 12 11 11 10 9 9 9 9 9 10 11 12 13 14 14 15 16 16 16 16 15 15
21 21 21 21 21 21 21 22 22 21 21 22 23 23 22 21 21 20 20 21 21 22 22 22 21 20 20 20 20 20 18 17 16 15 15 16 16 16 15 14 13 13 13 12 11 10 9 9 9 10 10 11 12 13 14 15 15 16 16 16 15 15 16
21 22 23 23 22 22 22 22 21 22 22 23 24 23 22 21 21 20 20 21 22 23 23 23 24 23 23 22 22 22 21 19 18 17 18 19 19 18 16 15 14 14 14 13 12 10 9 9 9 10 10 11 12 13 14 14 15 15 16 15 15 17 18
19 21 22 23 22 24 25 22 21 22 22 23 24 24 22 21 20 20 20 21 22 23 24 25 26 26 26 25 23 24 23 22 20 20 21 22 21 20 17 16 15 15 15 14 12 11 10 9 9 9 11 12 13 14 15 14 14 14 15 15 16 18 20
17 17 19 22 22 22 23 21 21 22 23 24 25 23 22 20 18 18 19 20 21 23 24 26 27 27 27 26 25 24 24 24 23 23 23 24 23 21 18 17 16 16 15 15 12 11 10 9 8 9 10 12 13 14 14 14 13 14 14 16 17 18 20
14 14 15 20 22 22 22 21 21 21 22 24 25 23 21 18 15 16 18 19 20 21 22 23 25 26 26 27 26 25 25 25 24 25 25 25 24 22 19 18 17 16 15 15 12 10 9 9 8 9 10 11 12 12 12 13 14 14 15 16 17 18 20
15 14 13 16 21 24 24 22 21 21 22 24 25 23 19 15 13 15 17 18 19 20 20 21 22 24 25 26 26 26 25 26 26 26 26 25 23 21 19 17 16 17 16 14 12 10 9 8 8 9 10 11 11 12 13 14 15 15 15 16 17 19 21
17 16 15 14 17 21 22 21 22 23 24 25 23 19 15 13 13 14 15 16 17 18 18 19 20 21 23 24 25 26 25 25 25 23 23 21 19 18 17 16 17 17 15 14 12 10 9 8 8 9 10 10 12 13 14 14 14 15 16 18 19 20 21
20 19 18 16 15 17 17 19 23 24 24 23 19 15 13 13 13 12 13 15 15 15 15 17 18 19 20 21 22 23 23 22 20 18 18 17 16 16 16 17 17 17 15 15 13 11 9 8 9 10 10 11 13 14 15 15 15 16 18 20 21 22 23
21 19 21 20 17 17 18 20 25 27 25 21 17 14 12 12 12 13 14 14 13 13 14 15 16 17 18 19 20 20 19 17 16 16 15 15 16 16 17 18 18 17 16 15 13 11 10 9 10 11 11 12 14 15 16 16 16 17 19 21 23 25 26
21 20 22 22 19 18 20 24 28 29 27 21 16 13 11 12 13 15 17 15 14 15 15 16 16 17 17 18 19 18 16 15 15 15 16 16 17 17 18 18 18 17 16 15 13 12 11 10 11 12 12 13 14 16 17 17 17 18 21 24 26 28 29
22 21 21 22 21 18 21 28 31 30 27 21 15 13 13 15 15 16 19 19 18 18 18 18 19 18 18 19 19 17 16 15 15 16 17 17 18 18 19 19 18 18 17 15 14 13 12 12 12 13 14 15 16 17 17 17 18 20 23 26 29 30 32
23 22 22 23 23 20 21 28 33 33 27 20 16 15 17 19 19 19 21 22 22 22 21 21 21 19 19 20 20 18 17 16 16 17 18 18 19 19 19 19 19 18 18 16 15 14 13 12 13 14 16 16 17 18 18 18 19 21 24 27 30 32 33
26 22 21 23 25 22 19 23 32 36 30 23 20 20 21 23 23 22 22 24 26 26 24 24 23 21 19 20 21 20 19 18 19 20 19 20 20 20 19 19 19 19 19 17 15 14 13 13 14 16 17 18 18 19 19 19 19 22 24 27 30 32 34
27 24 23 24 24 23 20 21 28 32 29 24 23 24 25 26 24 22 22 24 27 27 25 25 23 21 19 20 20 21 22 23 22 22 22 21 21 20 19 19 20 20 19 17 16 15 14 14 15 17 18 18 18 18 18 19 20 22 25 27 30 33 34
29 30 31 30 29 27 24 23 23 25 25 25 26 28 29 27 23 20 20 22 25 27 26 25 24 21 18 18 20 22 25 26 26 25 25 23 22 21 21 21 22 22 20 18 17 15 15 15 16 17 18 18 18 18 18 20 22 24 25 28 31 33 35
31 36 38 35 33 31 27 25 23 25 26 28 30 31 31 28 23 21 22 23 25 28 28 27 26 22 18 18 21 23 25 28 28 27 26 25 24 23 23 24 24 23 21 19 17 16 16 16 16 18 18 18 17 18 20 22 23 25 27 29 32 34 36
31 34 34 31 28 28 28 29 28 29 31 33 34 33 32 30 27 26 27 26 27 29 31 30 27 23 20 20 22 24 26 28 28 27 26 26 25 25 25 26 25 23 21 19 18 17 17 16 16 17 17 17 17 19 20 21 23 25 28 30 33 35 37
37 36 35 34 33 33 34 35 35 35 36 37 37 35 32 32 32 33 32 30 28 29 32 32 29 26 24 23 24 25 27 29 30 28 26 25 26 27 28 27 26 23 21 19 19 18 17 15 15 16 15 16 16 17 18 20 22 25 28 31 34 37 37
44 44 43 43 43 42 40 40 38 37 37 37 36 34 34 35 36 38 37 33 30 30 32 32 31 30 28 26 25 27 28 29 30 29 27 27 28 30 29 28 26 23 21 21 20 18 16 15 15 15 15 16 17 18 18 20 23 26 28 31 34 36 34
43 47 48 48 49 49 46 43 39 37 36 36 36 36 37 39 40 42 42 39 35 33 33 32 32 32 32 30 28 28 29 29 29 29 28 29 30 31 30 28 26 24 23 21 19 17 16 16 15 15 17 18 20 20 20 21 24 27 30 33 35 36 33
39 45 49 51 51 53 53 49 43 39 36 35 38 40 40 42 43 44 45 44 40 36 35 35 34 34 34 33 31 30 30 30 30 30 30 31 32 32 31 29 27 25 23 21 19 18 17 16 16 17 19 21 21 22 22 24 26 30 32 35 38 38 36
43 47 51 52 51 51 52 50 46 43 39 37 37 39 41 43 44 45 47 47 41 35 35 36 36 35 35 36 35 33 32 31 31 31 31 32 33 32 31 29 27 25 24 21 19 18 17 17 18 19 20 21 22 23 24 26 29 32 33 36 39 40 39
48 50 51 49 46 44 43 43 43 43 42 40 41 43 43 43 43 43 45 45 40 36 34 34 36 36 36 37 37 34 33 33 33 32 32 33 34 32 31 29 27 25 23 21 19 18 18 18 19 20 21 21 23 25 26 28 30 33 34 36 39 41 41
52 51 49 46 42 40 40 39 40 42 42 44 47 47 46 47 47 46 46 45 42 39 35 34 35 37 37 37 37 36 36 35 35 34 33 33 33 32 30 28 27 25 24 22 20 19 19 20 21 22 22 22 24 27 28 30 33 35 36 38 41 43 43
58 55 52 50 47 45 44 42 41 42 45 47 49 49 48 51 54 53 50 48 45 43 39 35 35 37 37 38 39 39 38 38 37 36 33 32 31 29 28 28 27 26 24 23 21 20 21 22 23 24 24 24 26 29 30 32 36 38 38 40 42 44 45
59 60 58 56 54 51 50 49 47 46 48 49 50 51 53 54 56 55 52 49 49 48 44 40 38 39 40 41 41 41 40 40 38 36 33 31 30 29 29 29 27 26 25 24 23 22 23 24 25 25 26 26 28 30 32 34 37 39 41 43 44 45 47
50 57 60 61 61 58 55 55 54 53 53 53 52 54 56 57 58 57 55 54 53 52 49 46 44 43 43 44 44 43 42 41 40 38 35 32 32 33 32 30 29 28 28 27 25 25 26 27 27 28 28 28 30 31 33 36 39 40 43 44 45 47 48
45 47 51 56 61 62 61 61 61 60 58 57 56 57 58 59 61 61 60 60 60 57 54 53 51 48 48 47 46 45 44 42 42 41 39 36 36 37 36 34 32 32 32 30 29 29 30 30 30 31 30 31 31 32 35 38 40 42 44 45 46 48 46
46 45 45 46 50 54 57 61 64 65 63 62 62 63 63 62 61 61 61 61 61 59 57 56 54 53 51 49 45 44 45 45 45 46 43 41 40 41 40 38 36 36 36 34 33 33 34 34 34 34 33 33 33 33 36 39 41 44 46 47 47 46 44
46 45 46 46 45 46 47 50 54 56 56 57 60 64 68 69 67 65 63 61 60 60 60 59 58 57 56 52 47 45 45 46 47 48 47 45 44 44 43 42 40 40 40 38 37 37 38 37 37 36 34 34 34 35 38 40 42 45 48 48 46 45 44
49 47 47 48 47 46 45 45 45 46 46 46 49 53 60 67 72 72 70 67 66 65 64 62 62 62 60 58 54 50 47 47 50 51 50 48 48 48 47 46 45 44 43 41 41 41 42 40 38 35 33 34 34 36 39 42 44 46 48 48 47 45 44
55 53 52 51 50 48 47 46 45 44 44 45 46 47 49 55 63 70 73 71 69 68 67 65 64 65 65 63 62 58 53 50 52 54 52 51 51 52 51 50 48 47 47 46 44 43 44 42 38 34 33 33 34 37 40 43 45 47 48 50 49 46 45
53 55 55 55 53 51 51 50 49 48 47 48 48 49 49 50 53 58 63 65 66 69 71 69 68 69 70 71 72 70 65 58 56 56 55 53 54 55 53 52 52 52 52 50 45 44 44 41 36 34 33 34 36 39 41 43 46 48 50 52 51 47 45
48 50 52 53 52 52 52 53 53 53 53 53 53 54 54 54 53 54 56 57 58 62 68 73 75 76 77 78 77 75 72 66 59 58 58 56 56 56 53 51 54 55 52 49 46 44 42 38 34 34 35 36 38 40 41 43 46 48 50 51 50 48 46
46 47 47 48 49 50 51 53 56 57 58 58 60 60 61 61 60 59 59 58 57 57 61 67 75 80 83 85 82 78 75 70 62 59 60 58 57 57 55 53 53 52 49 49 47 42 37 35 35 36 36 38 40 41 41 43 45 46 47 50 51 50 47
45 45 45 46 46 47 49 51 54 56 59 61 64 64 64 65 64 63 62 62 62 63 65 67 70 75 80 85 86 80 74 69 64 60 61 61 59 58 57 54 52 49 47 46 43 38 35 36 37 38 39 40 41 41 42 43 44 45 47 50 50 49 48
45 44 44 45 46 47 48 50 50 52 55 58 60 60 60 63 64 63 64 63 61 61 66 70 71 69 67 69 75 75 69 65 64 60 59 60 58 56 55 52 49 46 43 41 39 37 37 38 39 40 40 41 41 42 43 43 44 46 49 51 51 51 51
Wind_Direction
255 252 249 244 241 239 236 235 235 234 234 237 237 237 236 233 233 235 236 238 240 242 245 246 245 244 246 251 253 252 249 246 242 241 242 245 248 254 262 268 272 277 282 280 275 274 278 284 291 298 303 306 308 310 313 314 314 316 319 321 322 327 334
256 250 247 245 242 241 238 235 236 236 234 234 236 238 238 235 234 235 237 240 242 243 244 244 246 245 244 246 249 251 251 250 249 247 246 248 249 251 258 264 268 272 277 277 273 270 272 278 286 293 299 305 307 310 313 313 312 312 314 316 319 325 333
265 258 250 245 244 245 244 239 234 234 233 234 238 241 240 238 238 238 241 245 247 248 247 246 246 246 245 245 246 247 247 247 248 249 248 249 251 252 255 261 265 268 272 273 269 266 267 272 280 290 298 303 306 308 312 312 310 309 310 314 319 326 330
273 271 259 250 246 246 245 238 230 229 230 233 239 242 243 242 243 246 250 254 255 254 250 246 245 244 244 243 244 244 244 243 244 245 247 249 252 254 254 258 261 262 266 267 263 261 264 269 276 287 295 299 301 305 306 307 306 306 310 315 320 325 327
279 286 270 256 250 246 241 237 235 234 232 233 238 242 245 246 249 257 263 264 263 258 253 249 245 245 245 244 243 242 241 241 241 243 247 249 252 253 252 253 255 257 262 262 257 256 261 268 277 285 290 293 297 300 301 301 302 305 310 316 319 321 321
278 292 275 256 247 244 240 239 241 240 233 231 235 240 243 247 255 263 268 269 266 261 257 253 248 246 246 245 243 241 240 240 241 242 245 248 250 250 248 248 250 253 256 255 253 252 257 267 278 284 287 291 294 295 296 297 300 304 310 315 316 316 317
276 287 280 255 239 237 238 237 237 232 226 226 229 234 240 246 256 263 266 268 268 264 259 253 248 246 246 246 244 243 242 242 241 242 244 246 246 244 241 241 245 247 249 249 247 248 255 266 275 279 283 288 289 291 293 296 301 305 309 313 315 316 318
277 282 282 262 238 236 239 237 232 228 225 226 227 231 238 246 254 260 265 266 265 264 259 253 249 247 246 246 246 245 243 241 240 240 240 239 236 233 232 233 238 242 243 241 239 242 253 263 268 273 279 283 287 291 295 297 300 306 312 315 318 319 320
270 273 276 269 248 243 246 242 239 235 232 229 224 221 227 239 252 257 256 256 259 260 257 252 251 250 247 245 244 243 240 236 233 231 227 223 220 220 224 227 231 235 236 236 236 240 247 255 262 269 277 283 289 293 296 298 303 310 315 317 319 321 324
264 264 269 269 257 253 253 245 241 239 235 231 222 215 222 237 249 251 246 247 255 257 253 250 251 251 248 243 238 236 234 230 224 219 214 210 211 215 220 224 226 227 229 232 237 242 245 250 259 268 278 284 289 293 296 301 307 312 315 317 320 325 328
258 256 263 267 262 256 247 237 234 236 237 234 229 226 237 248 252 251 249 250 256 257 253 252 252 251 247 241 237 233 231 228 222 215 210 207 210 214 218 222 222 220 222 227 234 242 247 252 260 269 277 282 286 291 296 302 308 312 314 317 322 326 327
254 252 255 263 265 257 241 230 228 232 234 232 230 235 245 252 256 256 253 251 253 254 253 253 255 255 249 243 238 232 229 229 222 215 213 211 213 216 216 218 218 217 218 223 231 240 246 253 261 269 275 280 285 290 295 301 306 310 314 319 323 326 327
238 242 250 259 261 256 243 230 226 228 232 230 228 237 243 247 252 256 255 252 253 254 253 253 257 259 255 247 241 233 229 228 224 220 218 217 218 218 216 215 215 216 219 222 230 238 245 251 260 268 273 277 282 288 293 297 300 307 316 322 325 327 327
222 227 246 255 254 252 245 232 226 227 230 230 229 235 241 245 247 250 248 244 246 251 251 253 259 263 262 256 248 238 231 228 229 229 227 225 224 223 219 217 217 219 221 224 229 236 243 250 257 264 269 274 279 285 289 292 298 310 320 324 325 325 325
231 227 235 240 243 247 248 241 231 227 227 229 231 235 241 246 246 246 244 237 239 247 251 253 260 266 267 266 258 248 239 234 234 236 235 232 230 227 223 222 223 224 226 227 230 235 241 247 253 260 266 272 279 284 287 293 303 315 322 323 323 323 322
241 239 237 233 230 233 244 249 234 220 219 227 232 235 242 248 248 246 249 245 243 247 251 253 259 266 271 272 267 257 249 244 240 239 241 240 234 229 225 224 227 229 230 230 232 236 241 245 251 258 264 272 279 284 291 300 310 317 320 321 322 322 322
245 249 248 242 232 227 235 247 238 220 221 230 236 239 244 250 252 251 254 253 249 249 251 252 255 261 267 272 269 263 259 255 249 243 243 244 239 232 228 227 230 232 232 232 234 237 240 245 252 259 267 276 283 288 295 302 310 316 319 321 322 320 320
241 248 251 249 246 240 240 247 243 229 226 233 238 242 245 250 254 255 255 254 250 250 251 252 254 257 262 266 268 268 267 264 258 250 245 245 242 236 231 230 231 232 233 234 236 238 240 246 253 262 273 282 286 290 295 301 310 318 320 321 319 316 315
232 236 239 241 245 246 246 249 246 234 228 234 240 242 246 250 253 255 253 251 247 246 248 250 252 256 260 262 267 270 269 267 264 257 248 245 242 237 234 233 232 231 231 232 236 241 245 249 255 265 276 284 288 293 298 306 316 320 319 318 316 314 312
232 232 234 236 239 241 243 246 245 235 227 232 238 242 245 248 251 254 253 249 243 239 241 245 248 252 257 260 264 268 268 268 267 262 251 244 241 239 238 237 233 229 226 227 234 243 249 252 260 273 282 287 292 297 305 314 318 316 316 316 315 315 315
235 235 235 236 239 241 241 241 238 232 230 233 237 241 245 247 250 253 254 253 248 241 237 239 243 249 254 257 259 263 266 268 269 265 255 245 242 242 241 238 233 228 226 227 233 239 245 253 265 278 285 290 295 300 308 316 315 312 314 318 317 315 316
234 236 236 236 237 239 241 241 234 227 228 234 237 240 243 245 248 251 254 258 257 248 239 239 242 247 251 254 256 258 262 266 268 265 257 248 244 243 242 239 234 230 228 228 231 235 243 256 271 280 285 290 296 303 310 314 313 312 315 318 318 317 315
231 235 236 237 238 237 238 240 235 229 228 230 233 237 241 245 249 252 256 258 257 252 244 241 244 246 248 251 254 256 260 264 266 265 258 250 246 244 242 239 234 230 229 229 232 239 249 260 270 278 284 290 297 304 309 311 310 310 314 316 317 317 315
231 235 236 237 238 238 238 240 240 238 237 233 231 233 237 243 248 251 254 255 253 251 248 245 244 245 246 249 252 255 259 261 263 264 258 252 248 244 240 237 232 229 228 230 235 244 252 261 270 277 284 291 298 303 306 306 306 308 311 312 313 315 315
230 234 234 234 236 238 241 243 245 246 244 238 236 237 237 239 241 244 249 251 251 250 247 245 245 245 243 247 252 255 258 260 261 261 257 252 247 242 237 234 230 228 230 235 241 248 256 265 272 278 285 293 298 302 305 304 304 306 308 308 309 312 314
228 232 234 235 235 236 237 239 244 248 248 246 244 243 240 240 242 247 251 252 251 250 246 242 244 244 242 243 248 251 254 257 257 257 255 250 244 239 236 232 230 232 237 242 248 253 259 266 272 278 285 293 297 300 303 303 303 305 307 306 307 310 313
227 230 234 236 236 235 233 235 239 243 248 250 249 247 244 242 243 247 250 251 251 250 247 244 242 241 239 238 241 245 249 251 251 251 249 245 241 239 239 238 238 241 245 248 252 256 260 265 271 277 283 289 292 296 300 300 302 304 305 305 307 310 311
232 230 231 233 236 237 236 237 239 240 243 246 248 249 249 247 246 246 248 251 251 248 247 247 243 240 238 236 235 238 242 245 247 245 242 240 242 244 244 245 247 249 251 253 256 258 262 266 270 275 279 284 288 293 297 299 301 303 304 306 308 311 310
244 238 234 232 234 237 238 239 242 243 243 243 245 248 251 252 252 251 251 253 253 251 251 250 245 241 240 238 235 235 238 241 244 244 241 239 242 246 247 248 250 252 254 257 258 259 263 265 268 271 276 281 286 292 297 298 300 303 305 306 308 309 309
250 247 245 240 236 236 237 238 242 244 246 246 246 248 249 251 253 255 256 256 254 253 252 248 242 239 239 240 238 238 239 239 240 242 242 238 238 242 245 246 249 252 254 256 257 260 263 264 266 269 273 278 286 293 296 297 300 303 304 305 308 308 307
252 250 250 249 244 240 238 239 240 243 245 246 246 247 249 249 249 251 254 255 252 250 249 245 239 235 236 239 243 243 241 240 240 240 240 238 235 237 241 244 247 250 253 254 255 258 261 263 265 270 275 280 287 292 294 296 299 301 302 304 307 308 306
252 252 252 252 251 248 246 245 243 242 241 241 242 245 248 249 249 249 250 251 252 251 250 248 243 238 237 240 245 246 244 243 242 239 238 237 235 234 237 241 244 247 250 251 252 256 259 260 262 269 276 281 286 290 293 296 298 299 301 301 302 303 304
247 249 252 254 254 254 253 253 251 249 246 244 245 246 247 248 249 249 249 250 251 250 249 248 246 244 242 242 244 246 246 246 244 239 237 236 235 235 235 238 242 246 247 246 248 252 256 258 262 270 276 280 285 290 292 295 297 297 299 298 297 299 305
242 245 248 251 253 255 257 258 259 259 257 256 255 253 252 251 250 251 251 252 251 250 249 249 248 248 246 244 244 245 245 245 244 240 236 235 235 236 236 237 241 245 245 244 245 250 255 260 266 273 278 282 285 288 291 293 295 296 298 298 298 302 307
243 244 246 248 251 253 255 257 259 261 262 263 263 262 260 257 256 254 254 254 255 254 252 251 251 251 249 248 247 244 241 238 238 237 234 233 234 236 237 239 242 244 245 247 250 254 258 263 269 273 277 280 283 286 290 292 294 297 298 298 300 304 306
246 245 246 248 250 251 252 254 255 257 259 261 263 262 261 260 260 259 258 258 258 257 255 253 252 251 252 252 252 248 241 233 229 230 231 231 233 234 235 237 240 243 246 251 255 258 262 266 271 273 276 279 282 286 290 292 294 297 297 297 300 303 303
246 246 246 248 249 251 252 252 253 254 255 257 259 260 260 260 260 261 262 263 262 260 258 255 252 251 253 254 253 251 245 233 223 223 224 225 229 231 231 233 236 239 245 251 257 261 264 267 271 273 275 279 283 285 288 291 293 295 295 297 300 301 299
248 248 248 249 250 251 253 254 255 255 255 256 258 260 262 262 261 262 262 263 265 263 259 257 256 255 256 257 255 253 246 233 223 220 221 221 223 225 225 228 233 238 244 250 255 260 263 266 268 271 275 279 281 282 286 290 291 292 294 296 298 297 294
Height
5888 5889 5891 5892 5894 5895 5896 5896 5896 5897 5898 5898 5899 5900 5900 5901 5902 5903 5904 5905 5906 5907 5908 5909 5911 5912 5912 5913 5913 5914 5916 5918 5918 5919 5919 5919 5919 5919 5919 5920 5920 5920 5920 5920 5920 5921 5921 5921 5921 5921 5921 5921 5921 5920 5920 5919 5918 5918 5917 5917 5916 5915 5914
5885 5887 5888 5890 5891 5893 5893 5894 5894 5895 5896 5896 5897 5897 5898 5899 5900 5901 5902 5903 5904 5905 5906 5907 5908 5909 5910 5910 5911 5912 5913 5915 5916 5917 5917 5917 5917 5917 5917 5918 5918 5918 5918 5918 5918 5919 5919 5919 5919 5919 5919 5920 5919 5919 5919 5918 5917 5916 5916 5915 5915 5914 5912
5882 5884 5886 5887 5889 5891 5891 5891 5892 5893 5893 5894 5894 5895 5897 5898 5898 5899 5899 5900 5901 5902 5903 5904 5905 5906 5907 5907 5908 5909 5910 5912 5914 5915 5915 5914 5914 5915 5915 5916 5916 5916 5916 5916 5916 5917 5918 5918 5918 5918 5918 5918 5918 5917 5917 5917 5916 5915 5915 5914 5913 5912 5910
5880 5881 5883 5885 5887 5887 5887 5888 5889 5890 5890 5891 5892 5893 5895 5896 5896 5896 5897 5898 5898 5899 5900 5901 5901 5902 5903 5904 5905 5906 5908 5909 5911 5912 5912 5912 5912 5912 5913 5913 5913 5914 5914 5914 5915 5915 5916 5916 5916 5916 5916 5916 5916 5916 5915 5915 5915 5914 5913 5913 5912 5910 5909
5878 5879 5880 5881 5883 5884 5884 5886 5887 5887 5888 5889 5890 5891 5893 5893 5894 5894 5895 5895 5896 5896 5897 5897 5898 5899 5900 5901 5902 5903 5904 5906 5907 5908 5909 5909 5909 5910 5910 5910 5911 5911 5911 5912 5913 5913 5914 5914 5914 5915 5915 5914 5914 5914 5914 5913 5913 5913 5912 5911 5910 5909 5907
5876 5877 5877 5878 5880 5881 5882 5883 5884 5885 5886 5887 5888 5889 5890 5891 5892 5892 5892 5892 5893 5894 5894 5895 5896 5897 5898 5899 5900 5900 5901 5903 5904 5905 5905 5906 5906 5907 5907 5908 5908 5909 5909 5910 5910 5911 5911 5912 5912 5912 5913 5913 5913 5912 5912 5911 5911 5911 5910 5910 5908 5906 5904
5873 5875 5875 5875 5877 5878 5879 5880 5881 5883 5884 5885 5886 5887 5887 5888 5889 5890 5890 5890 5891 5892 5892 5893 5894 5895 5896 5897 5897 5898 5899 5900 5901 5901 5902 5902 5903 5904 5904 5905 5905 5906 5907 5907 5908 5909 5909 5910 5910 5910 5910 5911 5911 5911 5910 5910 5909 5909 5908 5907 5906 5904 5902
5870 5872 5873 5874 5874 5875 5876 5878 5879 5880 5881 5882 5883 5884 5885 5886 5887 5887 5888 5888 5889 5890 5891 5891 5892 5893 5894 5894 5895 5895 5896 5897 5897 5898 5898 5899 5900 5901 5901 5902 5903 5903 5904 5905 5906 5907 5907 5907 5908 5908 5908 5909 5908 5908 5908 5908 5907 5906 5905 5904 5903 5902 5900
5868 5869 5870 5872 5872 5873 5874 5875 5876 5877 5879 5879 5880 5881 5882 5883 5884 5885 5886 5887 5887 5888 5889 5890 5890 5891 5891 5892 5893 5893 5893 5894 5895 5895 5896 5896 5897 5898 5898 5899 5900 5901 5901 5902 5903 5904 5905 5905 5905 5906 5906 5906 5906 5906 5905 5905 5905 5904 5902 5901 5900 5899 5898
5865 5866 5868 5869 5870 5870 5871 5872 5874 5874 5875 5876 5876 5877 5879 5881 5882 5883 5884 5885 5885 5887 5887 5888 5888 5889 5890 5890 5891 5891 5892 5892 5892 5893 5893 5894 5894 5895 5895 5896 5897 5898 5899 5899 5900 5901 5902 5903 5903 5904 5904 5904 5904 5903 5902 5902 5901 5901 5899 5898 5897 5896 5894
5862 5863 5864 5865 5866 5867 5868 5869 5870 5871 5872 5873 5873 5875 5876 5879 5880 5881 5882 5883 5884 5884 5885 5886 5887 5887 5888 5888 5889 5889 5890 5890 5890 5890 5891 5891 5891 5892 5892 5893 5894 5895 5896 5897 5898 5899 5899 5900 5901 5901 5901 5901 5901 5901 5900 5899 5898 5898 5896 5895 5894 5893 5891
5859 5860 5861 5862 5863 5865 5865 5866 5867 5868 5869 5870 5871 5872 5874 5876 5878 5879 5880 5881 5881 5882 5883 5883 5884 5885 5886 5886 5887 5888 5888 5888 5888 5888 5888 5889 5889 5889 5890 5891 5891 5892 5893 5894 5895 5896 5897 5898 5898 5898 5899 5899 5898 5898 5898 5897 5896 5895 5894 5892 5891 5890 5888
5855 5857 5858 5859 5860 5862 5863 5863 5864 5865 5866 5868 5868 5870 5872 5874 5876 5877 5878 5878 5879 5880 5881 5881 5882 5883 5884 5884 5885 5886 5886 5887 5887 5886 5886 5887 5887 5887 5887 5888 5889 5889 5890 5891 5892 5894 5894 5895 5895 5896 5896 5896 5896 5896 5896 5895 5894 5893 5892 5890 5888 5887 5886
5848 5852 5854 5855 5856 5858 5860 5861 5862 5863 5864 5865 5866 5868 5870 5872 5874 5875 5875 5876 5876 5877 5878 5879 5880 5881 5882 5882 5883 5884 5884 5885 5884 5884 5884 5884 5884 5884 5885 5885 5886 5886 5887 5888 5890 5891 5892 5892 5893 5893 5893 5893 5893 5893 5893 5893 5892 5891 5889 5888 5886 5884 5883
5844 5846 5849 5851 5852 5854 5856 5858 5859 5860 5862 5863 5864 5866 5867 5869 5871 5872 5872 5873 5873 5874 5876 5876 5877 5879 5880 5880 5881 5882 5882 5882 5882 5882 5882 5882 5882 5882 5883 5883 5883 5883 5884 5886 5887 5888 5889 5890 5890 5890 5890 5890 5891 5891 5891 5890 5889 5888 5887 5885 5883 5881 5880
5840 5841 5842 5845 5848 5850 5853 5854 5856 5857 5859 5860 5861 5863 5864 5866 5868 5870 5870 5871 5871 5872 5873 5874 5875 5876 5878 5878 5878 5879 5879 5879 5880 5880 5880 5880 5881 5880 5880 5880 5880 5880 5881 5883 5884 5885 5886 5887 5887 5887 5887 5888 5888 5888 5888 5888 5887 5885 5884 5882 5880 5878 5877
5836 5838 5839 5841 5843 5846 5849 5851 5853 5855 5856 5857 5858 5860 5862 5864 5866 5867 5868 5868 5869 5870 5870 5871 5872 5874 5875 5876 5876 5876 5876 5876 5877 5877 5877 5878 5878 5878 5877 5877 5877 5877 5878 5879 5880 5882 5883 5883 5884 5884 5884 5885 5885 5885 5885 5884 5883 5882 5881 5879 5877 5875 5873
5833 5834 5836 5838 5839 5842 5845 5848 5850 5852 5853 5854 5855 5856 5858 5860 5862 5863 5865 5866 5867 5867 5868 5868 5869 5871 5872 5873 5873 5872 5873 5873 5873 5874 5875 5875 5875 5875 5874 5874 5874 5874 5875 5876 5877 5878 5879 5880 5881 5881 5881 5882 5882 5882 5882 5881 5880 5878 5877 5875 5873 5871 5869
5830 5832 5833 5835 5836 5838 5840 5843 5846 5848 5849 5850 5851 5853 5855 5856 5857 5859 5860 5863 5864 5864 5864 5865 5866 5867 5868 5869 5869 5869 5869 5869 5870 5871 5872 5872 5872 5872 5871 5870 5870 5871 5872 5873 5873 5874 5875 5877 5877 5878 5878 5879 5878 5878 5878 5877 5876 5875 5873 5871 5869 5867 5865
5826 5828 5830 5831 5832 5834 5836 5838 5841 5843 5845 5846 5848 5850 5851 5852 5853 5854 5856 5858 5860 5860 5860 5862 5863 5864 5864 5866 5866 5866 5866 5866 5866 5868 5869 5869 5868 5868 5867 5867 5868 5868 5868 5869 5870 5871 5872 5873 5874 5874 5875 5875 5875 5874 5874 5874 5873 5871 5869 5868 5865 5863 5862
5821 5823 5825 5827 5828 5830 5831 5834 5837 5839 5841 5843 5844 5846 5847 5847 5848 5849 5850 5852 5855 5856 5857 5858 5860 5861 5861 5862 5863 5863 5863 5863 5863 5864 5865 5865 5864 5864 5864 5864 5864 5865 5865 5866 5867 5868 5869 5870 5870 5871 5871 5871 5871 5871 5871 5870 5869 5867 5866 5864 5862 5860 5858
5816 5817 5819 5821 5823 5825 5827 5828 5831 5834 5836 5838 5840 5841 5841 5842 5843 5844 5845 5847 5850 5852 5854 5854 5856 5857 5857 5858 5860 5860 5860 5860 5860 5861 5861 5861 5861 5861 5861 5861 5861 5862 5862 5863 5864 5865 5866 5867 5868 5868 5868 5868 5867 5867 5867 5867 5866 5864 5863 5861 5859 5857 5855
5810 5810 5812 5814 5816 5819 5821 5823 5826 5828 5830 5832 5834 5836 5837 5837 5838 5839 5840 5842 5844 5847 5849 5850 5851 5852 5854 5855 5856 5857 5857 5856 5856 5857 5857 5857 5857 5858 5858 5858 5858 5858 5859 5860 5861 5862 5863 5864 5864 5864 5865 5864 5864 5864 5863 5863 5862 5860 5859 5857 5855 5853 5851
5807 5807 5808 5810 5811 5813 5816 5818 5820 5822 5824 5826 5828 5829 5831 5832 5833 5834 5835 5837 5839 5841 5843 5845 5846 5848 5850 5851 5852 5853 5853 5853 5853 5853 5854 5854 5854 5855 5856 5855 5855 5856 5856 5857 5858 5859 5860 5860 5861 5861 5861 5861 5860 5860 5859 5858 5857 5856 5854 5852 5850 5848 5847
5804 5805 5806 5808 5809 5810 5811 5813 5815 5817 5819 5821 5821 5823 5826 5827 5827 5828 5830 5832 5834 5835 5837 5840 5842 5844 5846 5847 5848 5849 5849 5849 5849 5849 5850 5851 5852 5852 5853 5853 5853 5853 5854 5854 5855 5856 5856 5856 5857 5857 5857 5857 5856 5855 5854 5853 5852 5851 5850 5848 5846 5844 5843
5800 5801 5803 5805 5807 5808 5809 5810 5811 5813 5814 5816 5817 5819 5821 5822 5822 5823 5826 5828 5829 5830 5833 5835 5838 5840 5842 5844 5845 5845 5845 5846 5845 5846 5848 5849 5849 5850 5850 5850 5850 5850 5851 5851 5851 5852 5852 5853 5853 5853 5852 5852 5851 5850 5850 5849 5847 5846 5845 5844 5842 5840 5839
5795 5798 5799 5801 5803 5805 5806 5807 5808 5809 5810 5811 5813 5814 5815 5816 5818 5819 5822 5824 5825 5826 5828 5831 5833 5835 5837 5838 5839 5840 5841 5842 5843 5844 5845 5846 5846 5846 5846 5846 5847 5847 5847 5847 5848 5848 5848 5848 5848 5848 5847 5847 5846 5845 5845 5844 5843 5841 5840 5839 5838 5836 5834
5790 5792 5794 5796 5798 5800 5801 5803 5804 5805 5806 5808 5808 5808 5808 5810 5812 5815 5817 5817 5819 5822 5824 5826 5827 5829 5831 5832 5834 5835 5837 5839 5840 5841 5842 5842 5842 5841 5842 5842 5843 5843 5843 5843 5843 5844 5843 5843 5843 5843 5842 5842 5841 5841 5840 5839 5838 5837 5836 5834 5833 5832 5829
5783 5785 5788 5790 5792 5794 5796 5797 5798 5799 5801 5803 5804 5803 5803 5804 5806 5808 5810 5812 5815 5818 5820 5820 5821 5823 5824 5825 5827 5830 5832 5834 5836 5837 5837 5838 5837 5837 5837 5838 5838 5838 5838 5838 5838 5838 5838 5838 5838 5838 5838 5837 5836 5836 5835 5834 5833 5832 5831 5830 5829 5827 5825
5778 5780 5782 5784 5786 5788 5790 5792 5793 5794 5796 5798 5799 5799 5798 5799 5800 5801 5802 5805 5809 5812 5812 5813 5814 5815 5816 5818 5820 5823 5825 5827 5829 5830 5831 5833 5833 5831 5831 5832 5832 5832 5832 5832 5833 5833 5833 5833 5833 5833 5833 5832 5831 5831 5830 5829 5828 5827 5826 5825 5824 5822 5820
5773 5775 5776 5778 5780 5782 5783 5785 5787 5789 5790 5791 5792 5792 5791 5792 5793 5794 5795 5797 5800 5801 5803 5804 5805 5805 5808 5810 5813 5815 5817 5819 5821 5822 5824 5826 5827 5826 5825 5825 5826 5826 5826 5826 5827 5827 5827 5827 5827 5828 5828 5827 5826 5826 5824 5823 5823 5822 5820 5819 5819 5817 5815
5767 5769 5770 5771 5773 5775 5777 5778 5780 5782 5783 5784 5785 5785 5785 5784 5785 5787 5789 5790 5792 5793 5795 5796 5798 5799 5801 5803 5805 5807 5809 5811 5813 5815 5817 5818 5820 5820 5819 5818 5819 5820 5819 5820 5820 5820 5820 5821 5822 5822 5822 5821 5821 5820 5819 5818 5817 5817 5816 5814 5813 5812 5810
5762 5763 5764 5765 5767 5769 5770 5771 5772 5774 5776 5777 5777 5777 5778 5778 5778 5780 5782 5784 5786 5786 5787 5789 5791 5793 5795 5795 5796 5797 5799 5801 5804 5807 5810 5811 5812 5812 5812 5812 5812 5811 5810 5809 5810 5812 5813 5815 5816 5816 5816 5816 5816 5815 5814 5813 5813 5812 5811 5809 5807 5806 5804
5756 5757 5758 5759 5761 5762 5763 5764 5765 5766 5767 5768 5769 5770 5770 5771 5772 5773 5774 5775 5777 5778 5779 5781 5783 5784 5785 5786 5785 5785 5787 5791 5795 5799 5802 5804 5804 5804 5805 5805 5804 5801 5799 5799 5802 5804 5807 5809 5810 5810 5811 5811 5811 5810 5809 5809 5808 5807 5805 5804 5802 5800 5798
5750 5752 5753 5754 5755 5757 5757 5758 5758 5759 5759 5760 5761 5763 5764 5765 5766 5767 5767 5768 5770 5772 5773 5774 5773 5772 5773 5774 5774 5773 5774 5777 5783 5789 5792 5795 5795 5796 5797 5796 5795 5794 5795 5796 5797 5800 5802 5804 5805 5805 5806 5806 5805 5805 5805 5804 5803 5801 5799 5798 5796 5795 5793
5745 5747 5748 5749 5750 5751 5752 5752 5752 5753 5754 5754 5754 5756 5758 5759 5759 5760 5761 5762 5764 5765 5764 5763 5762 5761 5761 5762 5763 5763 5763 5764 5770 5777 5782 5784 5785 5786 5787 5786 5787 5790 5792 5792 5793 5796 5798 5799 5800 5800 5800 5800 5800 5800 5800 5799 5797 5795 5793 5791 5790 5788 5786
5739 5741 5743 5744 5744 5745 5746 5746 5746 5747 5749 5748 5747 5748 5750 5752 5753 5754 5755 5756 5757 5757 5754 5751 5750 5751 5752 5751 5751 5753 5755 5755 5758 5763 5767 5770 5772 5775 5778 5778 5780 5783 5786 5788 5790 5792 5793 5794 5795 5795 5795 5795 5795 5795 5794 5793 5791 5789 5787 5785 5784 5782 5780
5734 5735 5737 5738 5738 5739 5739 5739 5740 5741 5741 5740 5740 5741 5743 5744 5745 5747 5748 5748 5748 5747 5744 5741 5740 5743 5746 5744 5741 5742 5747 5749 5750 5753 5757 5759 5763 5768 5771 5772 5774 5778 5781 5784 5785 5787 5788 5789 5790 5789 5789 5789 5789 5788 5788 5787 5785 5783 5780 5779 5777 5776 5774